Home   Weather   Riffa   Past weeks

Flag for Bahrain Past Weather in Riffa, Bahrain — Yesterday and Last 2 Weeks

Now
59 °F

Clear.


Feels Like: 57 °F
Forecast: 54 / 63 °F
Wind: 13 mph from Northwest

Location: Bahrain International Airport

Current Time: Feb 20, 2017 at 9:28:39 pm

Latest Report: Feb 20, 2017 at 9:00 pm


Visibility: 10 mi

Pressure: 30.15 "Hg

Humidity: 63%

Dew Point: 46 °F

Location of RiffaLocation

Past Weather in Riffa — Graph

°F

Riffa Temperature Yesterday

Maximum temperature yesterday: 57 °F (at 1:00 pm)
Minimum temperature yesterday: 52 °F (at 6:00 am)
Average temperature yesterday: 55 °F

High & Low Weather Summary for the Past Weeks

 TemperatureHumidityPressure
High73 °F (Feb 10, 12:00 pm)100% (Feb 16, 10:00 pm)30.39 "Hg (Feb 16, 10:00 pm)
Low52 °F (Feb 19, 6:00 am)38% (Feb 9, 12:00 pm)29.80 "Hg (Feb 13, 12:00 am)
Average63 °F74%30.07 "Hg
* Reported Feb 5 8:00 pm — Feb 20 8:00 pm, Riffa, Weather by CustomWeather, © 2017

Note: Actual official high and low records may vary slightly from our data, if they occured in-between our weather recording intervals... More about our weather records

Advertising

Riffa Weather History for the Previous 24 Hours

Scroll right to see more
 ConditionsComfort  
Time TempWeatherWind HumidityBarometerVisibility
8:00 pm
Mon, Feb 20
59 °FClear.14 mph63%30.15 "Hg10 mi
7:00 pm59 °FClear.17 mph63%30.18 "Hg10 mi
6:00 pm59 °FClear.16 mph59%30.15 "Hg10 mi
5:00 pm59 °FSunny.17 mph59%30.15 "Hg10 mi
4:00 pm61 °FSunny.18 mph59%30.15 "Hg10 mi
3:00 pm59 °FSunny.20 mph59%30.15 "Hg10 mi
2:00 pm61 °FSunny.20 mph48%30.15 "Hg10 mi
1:00 pm59 °FSunny.20 mph48%30.18 "Hg10 mi
12:00 pm59 °FSunny.16 mph48%30.24 "Hg10 mi
11:00 am59 °FSunny.21 mph45%30.24 "Hg10 mi
10:00 am57 °FSunny.18 mph48%30.24 "Hg10 mi
9:00 am57 °FSunny.18 mph55%30.27 "Hg10 mi
8:00 am55 °FSunny.16 mph55%30.27 "Hg10 mi
7:00 am55 °FPassing clouds.16 mph59%30.24 "HgN/A
6:00 am54 °FClear.15 mph67%30.24 "Hg10 mi
5:00 am55 °FClear.15 mph63%30.24 "Hg10 mi
4:00 am55 °FClear.14 mph67%30.21 "Hg10 mi
3:00 am55 °FClear.17 mph55%30.24 "Hg10 mi
2:00 am55 °FClear.21 mph55%30.24 "Hg10 mi
1:00 am55 °FClear.20 mph51%30.24 "Hg10 mi
12:00 am55 °FClear.20 mph51%30.27 "Hg10 mi
11:00 pm
Sun, Feb 19
55 °FClear.20 mph51%30.27 "Hg10 mi
10:00 pm55 °FClear.20 mph51%30.30 "Hg4 mi
9:00 pm55 °FClear.21 mph59%30.30 "Hg4 mi
Weather by CustomWeather, © 2017

See weather overviewHow to use our weather pages